This demonstration page uses our WeatherBlox Daily Observations layout. Learn more.

Left ArrowRight Arrow

Hourly Observations for June 27, 2020

Temp ( °F °C ) Dew Point ( °F °C ) Humidity (%) Winds ( mph kmh ) Pressure ( in mb ) Visibility ( mi km ) Precip ( " mm )
12:53 am 00:53 Clear 81 27.2 62 16.7 53 53 SSE 15 24 29.85 1011 10 16 0.00 0.00
1:53 am 01:53 Clear 79 26.1 65 18.3 62 62 SSE 14 22 29.83 1010 10 16 0.00 0.00
2:53 am 02:53 Clear 77 25 66 18.9 69 69 SSE 17 28 29.81 1010 10 16 0.00 0.00
3:53 am 03:53 Clear 75 23.9 66 18.9 74 74 SE 18 30 29.79 1009 10 16 0.00 0.00
4:53 am 04:53 Clear 74 23.3 66 18.9 76 76 SE 17 28 29.77 1008 10 16 0.00 0.00
5:53 am 05:53 Clear 73 22.8 66 18.9 79 79 SSE 10 17 29.78 1009 10 16 0.00 0.00
6:53 am 06:53 Sunny 71 21.7 67 19.4 87 87 SE 9 15 29.80 1009 8 13 0.00 0.00
7:41 am 07:41 Mostly Cloudy 73 22.8 67 19.4 81 81 SE 6 9 29.82 1010 7 11 0.00 0.00
7:53 am 07:53 Mostly Cloudy 73 22.8 67 19.4 81 81 SSE 8 13 29.81 1010 7 11 0.00 0.00
8:11 am 08:11 Partly Cloudy 74 23.3 67 19.4 79 79 SE 13 20 29.82 1010 8 13 0.00 0.00
8:53 am 08:53 Sunny 76 24.4 67 19.4 74 74 SE 18 30 29.82 1010 9 14 0.00 0.00
9:53 am 09:53 Sunny 80 26.7 67 19.4 64 64 SE 18 30 29.82 1010 10 16 0.00 0.00
10:53 am 10:53 Sunny 83 28.3 66 18.9 57 57 SSE 17 28 29.81 1009 10 16 0.00 0.00
11:53 am 11:53 Sunny 85 29.4 66 18.9 53 53 SE 9 15 29.81 1009 10 16 0.00 0.00
12:53 pm 12:53 Sunny 90 32.2 65 18.3 44 44 ESE 12 19 29.78 1008 10 16 0.00 0.00
1:53 pm 13:53 Sunny 94 34.4 62 16.7 35 35 SE 12 19 29.75 1008 10 16 0.00 0.00
2:53 pm 14:53 Sunny 95 35 59 15 30 30 ESE 12 19 29.72 1007 10 16 0.00 0.00
3:53 pm 15:53 Sunny 98 36.7 57 13.9 25 25 S 9 15 29.69 1006 10 16 0.00 0.00
4:53 pm 16:53 Sunny 97 36.1 56 13.3 25 25 SE 15 24 29.67 1005 10 16 0.00 0.00
5:53 pm 17:53 Sunny 95 35 58 14.4 29 29 SE 16 26 29.66 1004 10 16 0.00 0.00
6:53 pm 18:53 Sunny 93 33.9 58 14.4 31 31 SE 18 30 29.65 1004 10 16 0.00 0.00
7:53 pm 19:53 Sunny 91 32.8 62 16.7 38 38 SSE 17 28 29.67 1005 10 16 0.00 0.00
8:53 pm 20:53 Sunny 88 31.1 62 16.7 42 42 S 13 20 29.70 1006 10 16 0.00 0.00
9:53 pm 21:53 Clear 87 30.6 59 15 39 39 S 8 13 29.72 1007 10 16 0.00 0.00
10:53 pm 22:53 Clear 85 29.4 60 15.6 43 43 S 8 13 29.73 1007 10 16 0.00 0.00
11:53 pm 23:53 Clear 82 27.8 55 12.8 40 40 NE 14 22 29.76 1008 10 16 0.00 0.00

Powered by AerisWeather